TimeEST,TemperatureF,Dew PointF,Humidity,Sea Level PressureIn,VisibilityMPH,Wind Direction,Wind SpeedMPH,Gust SpeedMPH,PrecipitationIn,Events,Conditions,WindDirDegrees,DateUTC
12:53 AM,45.0,39.9,82,29.90,10.0,Variable,3.5,-,N/A,,Mostly Cloudy,0,2012-12-11 05:53:00
1:00 AM,44.6,39.2,81,29.91,10.0,NW,3.5,-,N/A,,Scattered Clouds,320,2012-12-11 06:00:00
1:10 AM,44.6,39.2,81,29.92,10.0,Variable,5.8,-,N/A,,Mostly Cloudy,0,2012-12-11 06:10:00
1:53 AM,43.0,39.0,86,29.90,10.0,NW,3.5,-,N/A,,Scattered Clouds,320,2012-12-11 06:53:00
2:53 AM,41.0,36.0,82,29.91,10.0,Variable,3.5,-,N/A,,Clear,0,2012-12-11 07:53:00
3:53 AM,39.0,35.1,86,29.93,10.0,NW,3.5,-,N/A,,Clear,310,2012-12-11 08:53:00
4:53 AM,37.0,34.0,89,29.95,10.0,Calm,Calm,-,N/A,,Clear,0,2012-12-11 09:53:00
5:53 AM,36.0,32.0,86,29.98,10.0,Variable,3.5,-,N/A,,Partly Cloudy,0,2012-12-11 10:53:00
6:31 AM,35.6,33.8,93,30.01,10.0,Calm,Calm,-,N/A,,Mostly Cloudy,0,2012-12-11 11:31:00
6:53 AM,36.0,32.0,86,30.00,10.0,Calm,Calm,-,N/A,,Overcast,0,2012-12-11 11:53:00
7:53 AM,37.0,33.1,86,30.04,10.0,Calm,Calm,-,N/A,,Overcast,0,2012-12-11 12:53:00
8:53 AM,37.0,33.1,86,30.05,10.0,NNW,4.6,-,N/A,,Overcast,330,2012-12-11 13:53:00
9:53 AM,37.9,32.0,79,30.08,10.0,Variable,5.8,-,N/A,,Overcast,0,2012-12-11 14:53:00
10:53 AM,39.0,32.0,76,30.09,10.0,Variable,6.9,-,N/A,,Overcast,0,2012-12-11 15:53:00
11:53 AM,39.0,32.0,76,30.08,10.0,NNW,10.4,16.1,N/A,,Overcast,340,2012-12-11 16:53:00
12:53 PM,39.9,32.0,73,30.07,10.0,North,6.9,-,N/A,,Overcast,350,2012-12-11 17:53:00
1:46 PM,41.0,32.0,70,30.07,10.0,North,8.1,-,N/A,,Scattered Clouds,350,2012-12-11 18:46:00
1:53 PM,41.0,32.0,70,30.07,10.0,NNW,5.8,-,N/A,,Partly Cloudy,330,2012-12-11 18:53:00
2:25 PM,42.8,32.0,66,30.08,10.0,North,8.1,-,N/A,,Mostly Cloudy,350,2012-12-11 19:25:00
2:38 PM,42.8,32.0,66,30.08,10.0,North,9.2,-,N/A,,Scattered Clouds,360,2012-12-11 19:38:00
2:53 PM,41.0,32.0,70,30.08,10.0,Variable,5.8,-,N/A,,Clear,0,2012-12-11 19:53:00
3:53 PM,41.0,32.0,70,30.09,10.0,North,5.8,-,N/A,,Clear,350,2012-12-11 20:53:00
4:53 PM,39.9,32.0,73,30.11,9.0,NNW,6.9,-,N/A,,Clear,340,2012-12-11 21:53:00
5:53 PM,37.9,30.9,76,30.11,10.0,Variable,5.8,-,N/A,,Clear,0,2012-12-11 22:53:00
6:53 PM,37.0,30.9,79,30.12,10.0,Calm,Calm,-,N/A,,Clear,0,2012-12-11 23:53:00
7:53 PM,37.0,30.0,76,30.13,10.0,Calm,Calm,-,N/A,,Clear,0,2012-12-12 00:53:00
8:53 PM,36.0,30.0,79,30.13,10.0,Calm,Calm,-,N/A,,Clear,0,2012-12-12 01:53:00
9:53 PM,36.0,30.9,82,30.16,10.0,Calm,Calm,-,N/A,,Clear,0,2012-12-12 02:53:00
10:53 PM,37.0,30.0,76,30.16,10.0,Calm,Calm,-,N/A,,Clear,0,2012-12-12 03:53:00
11:53 PM,37.0,30.9,79,30.18,10.0,Calm,Calm,-,N/A,,Clear,0,2012-12-12 04:53:00